This is the latest recevied weather packets stored in our database for station/object KJ5BMY-13. If no packets are shown the sender has not sent any weather packets the latest 10 day(s).
| Time | Temp. | Humidity | Pressure | Rain* | Wind** | Luminosity | Snow |
|---|---|---|---|---|---|---|---|
| 1777825182 | 26.11° C | 43% | 1023.4 hPa | 0 mm | - | - | - |
| 1777824878 | 25.56° C | 42% | 1023.5 hPa | 0 mm | - | - | - |
| 1777824574 | 25.56° C | 42% | 1023.4 hPa | 0 mm | - | - | - |
| 1777824272 | 25.56° C | 42% | 1023.6 hPa | 0 mm | - | - | - |
| 1777823967 | 25.56° C | 42% | 1023.5 hPa | 0 mm | - | - | - |
| 1777823664 | 25° C | 44% | 1023.6 hPa | 0 mm | - | - | - |
| 1777823361 | 25.56° C | 44% | 1023.6 hPa | 0 mm | - | - | - |
| 1777823059 | 25° C | 44% | 1023.5 hPa | 0 mm | - | - | - |
| 1777822757 | 24.44° C | 43% | 1023.6 hPa | 0 mm | - | - | - |
| 1777822455 | 25° C | 44% | 1023.4 hPa | 0 mm | - | - | - |
| 1777822152 | 24.44° C | 47% | 1023.5 hPa | 0 mm | - | - | - |
| 1777821849 | 24.44° C | 45% | 1023.4 hPa | 0 mm | - | - | - |
| 1777821546 | 24.44° C | 44% | 1023.4 hPa | 0 mm | - | - | - |
| 1777821244 | 23.89° C | 45% | 1023.6 hPa | 0 mm | - | - | - |
| 1777820941 | 23.89° C | 46% | 1023.5 hPa | 0 mm | - | - | - |
| 1777820637 | 23.89° C | 46% | 1023.4 hPa | 0 mm | - | - | - |
| 1777820333 | 23.33° C | 47% | 1023.6 hPa | 0 mm | - | - | - |
| 1777820031 | 23.33° C | 47% | 1023.2 hPa | 0 mm | - | - | - |
| 1777819728 | 23.33° C | 48% | 1023.3 hPa | 0 mm | - | - | - |
| 1777819426 | 23.33° C | 48% | 1023.2 hPa | 0 mm | - | - | - |
| 1777819123 | 22.78° C | 48% | 1023.3 hPa | 0 mm | - | - | - |
| 1777818820 | 22.78° C | 49% | 1023.4 hPa | 0 mm | - | - | - |
| 1777818516 | 22.78° C | 48% | 1023.2 hPa | 0 mm | - | - | - |
| 1777818214 | 22.78° C | 49% | 1023.4 hPa | 0 mm | - | - | - |
| 1777817909 | 22.22° C | 51% | 1023.2 hPa | 0 mm | - | - | - |
* Rain latest hour (hover to see other rain measurements)
** Current wind speed in m/s (hover to see current wind gust speed)